#timestamp,LO_Frequency,Hit,StdDev 
1507572015.3,286047004.8,N
1507572035.1,286047001.3,N
1507572055.8,286047001.5,N
1507572075.7,286047001.8,N
1507572095.5,286047002.8,N
1507572115.3,286046998.4,N
1507572135.2,286047001.8,N
1507572155.9,286047001.3,N
1507572175.7,286047005.5,N
1507572195.6,286047002.7,N
1507572215.4,286047001.8,N
1507572235.2,286047004.1,N
1507572255.0,286047001.3,N
1507572256.0,286047001.3,N
1507572275.8,286047003.7,N
1507572295.6,286047004.0,N
1507572315.4,286047000.2,N
1507572335.3,286047000.3,N
1507572355.1,286046996.9,N
1507572375.8,286047001.1,N
1507572395.7,286047004.3,N
1507572415.5,286047003.8,N
1507572435.3,286047004.3,N
1507572455.2,286047001.5,N
1507572475.9,286047002.4,N
1507572495.7,286047001.9,N
1507572515.6,286047004.4,N
1507572535.4,286047003.0,N
1507572555.2,286047003.7,N
1507572575.1,286047005.7,Y
1507572576.0,286047005.7,P
1507572595.8,286047001.5,N
1507572615.6,286047001.4,N
1507572635.5,286047001.8,N
1507572655.3,286046999.9,N
1507572675.1,286046998.6,N
1507572695.8,286046998.6,N
1507572715.7,286047000.1,N
1507572735.5,286046998.8,N
1507572755.3,286046998.6,N
1507572775.2,286046997.1,N
1507572795.0,286046996.9,N
1507572795.9,286046996.9,N
1507572815.7,286046996.7,N
1507572835.6,286046999.2,N
1507572855.4,286046998.8,N
1507572875.2,286047001.3,N
1507572895.1,286047005.7,N
1507572896.0,286047005.7,N
1507572915.8,286047001.4,N
1507572935.6,286047001.8,N
1507572955.5,286047003.7,N
1507572975.3,286047001.5,N
1507572995.1,286047000.4,N
1507573015.9,286047002.5,N
1507573035.7,286047003.6,N
1507573055.5,286047004.2,N
1507573075.3,286047003.3,N
1507573095.2,286047003.7,N
1507573115.0,286047001.8,N
1507573115.9,286047001.8,N
1507573135.7,286047003.5,N
1507573155.6,286047005.4,N
1507573175.4,286047003.4,N
1507573195.2,286047003.9,N
1507573215.1,286047001.9,N
1507573216.0,286047001.9,N
1507573235.8,286047001.6,N
1507573255.6,286047003.0,N
1507573275.5,286047004.2,N
1507573295.3,286047004.3,N
1507573315.1,286047000.1,N
1507573335.9,286047000.3,N
1507573355.7,286047002.7,N
1507573375.5,286046998.3,N
1507573395.3,286046999.5,N
1507573415.2,286046998.8,N
1507573435.0,286047001.7,N
1507573435.9,286047001.7,N
1507573455.7,286047001.4,N
1507573475.6,286047002.5,N
1507573495.4,286047002.5,N
1507573515.2,286047001.1,N
1507573535.1,286046998.2,N
1507573536.0,286046998.2,N
1507573555.8,286047002.0,N
1507573575.6,286047004.3,N
1507573595.5,286046998.5,N
1507573615.3,286047000.2,N
1507573635.1,286047003.4,N
1507573655.9,286047005.7,N
1507573675.7,286047006.4,Y
1507573695.5,286047004.5,P
1507573715.4,286047008.2,P
1507573735.2,286047008.7,P
1507573755.0,286047010.3,Y
1507573755.9,286047010.3,P
1507573775.8,286047002.4,N
1507573795.6,286047000.8,N
1507573815.4,286046998.1,N
1507573835.3,286046998.2,N
1507573855.1,286046996.8,N
1507573856.0,286046996.8,N
1507573875.8,286046999.6,N
1507573895.7,286046997.2,N
1507573915.5,286046999.2,N
1507573935.3,286046997.1,N
1507573955.2,286046997.3,N
1507573975.9,286046992.4,N
1507573995.7,286046991.1,N
1507574015.5,286046992.9,N
1507574035.4,286046994.3,N
1507574055.2,286046991.5,N
1507574075.0,286046988.7,N
1507574075.9,286046988.7,N
1507574095.8,286046986.9,N
1507574115.6,286046988.7,N
1507574135.4,286046988.9,N
1507574155.3,286046988.9,N
1507574175.1,286046988.7,N
1507574176.0,286046988.7,N
1507574195.8,286046994.3,N
1507574215.7,286046989.1,N
1507574235.5,286046989.9,N
1507574255.3,286046990.0,N
1507574275.2,286046989.8,N
1507574295.9,286046991.4,N
1507574315.7,286046989.2,N
1507574335.5,286046990.9,N
1507574355.4,286046987.1,Y
1507574375.2,286046995.5,P
1507574395.0,286046992.9,P
1507574396.0,286046992.9,P
1507574415.8,286046990.6,Y
1507574435.6,286046995.2,P
1507574455.5,286046995.8,P
1507574475.3,286046992.7,P
1507574495.1,286046992.8,Y
1507574515.9,286046995.5,P
1507574535.7,286046997.7,P
1507574555.5,286046996.8,N
1507574575.4,286046996.6,N
1507574595.2,286046997.2,N
1507574615.0,286046996.9,N
1507574615.9,286046996.9,N
1507574635.7,286046997.7,N
1507574655.6,286046995.5,Y
1507574675.4,286046998.7,P
1507574695.2,286046997.3,N
1507574715.1,286046999.5,N
1507574716.0,286046999.5,N
1507574735.8,286046997.2,N
1507574755.6,286046997.1,N
1507574775.5,286046996.7,N
1507574795.3,286046998.8,N
1507574815.1,286046999.6,N
1507574835.9,286046997.3,N
1507574855.7,286046998.8,N
1507574875.5,286046997.0,N
1507574895.4,286046998.1,N
1507574915.2,286046997.9,N
1507574935.0,286046995.3,Y
1507574935.9,286046995.3,P
1507574955.8,286046996.5,N
1507574975.6,286046998.9,N
1507574995.4,286046998.6,N
1507575015.3,286046997.6,N
1507575035.1,286046996.5,N
1507575036.0,286046996.5,N
1507575055.8,286046998.1,N
1507575075.7,286047000.1,N
1507575095.5,286047000.1,N
1507575115.3,286047000.4,N
1507575135.2,286047002.8,N
1507575155.9,286046998.1,N
1507575175.7,286046998.5,N
1507575195.6,286046998.1,N
1507575215.4,286046998.8,N
1507575235.2,286046996.7,N
1507575255.0,286046994.9,N
1507575256.0,286046994.9,N
1507575275.8,286046993.4,Y
1507575295.6,286046995.3,P
1507575315.5,286046996.4,N
1507575335.3,286046992.2,P
1507575355.1,286046991.6,Y
1507575375.9,286046995.6,P
1507575395.7,286046995.8,P
1507575415.5,286046997.0,P
1507575435.4,286046995.1,Y
1507575455.2,286046999.6,P
1507575475.0,286046997.7,N
1507575475.9,286046997.7,N
1507575495.8,286046994.9,Y
1507575515.6,286046998.8,P
1507575535.4,286047001.0,N
1507575555.3,286047002.6,N
1507575575.1,286047000.5,N
1507575576.0,286047000.5,N
1507575595.8,286047002.1,N
